FW8309 Weather Reports


time (UTC)temp
C
wind
direction
speed
KPH
gust
KPH
rain 1hr
cm
rain 24hr
cm
rain mn
cm
humidity
%
barometer
mb
20260503180703 25 121 6.4 9.7 0.00 0.00 0.00 42 1013.4
20260503175201 23 139 3.2 8.0 0.00 0.00 0.00 46 1013.6
20260503173656 23 155 4.8 8.0 0.00 0.00 0.00 47 1013.9
20260503172152 22 146 3.2 3.2 0.00 0.00 0.00 48 1014.2
20260503170648 21 199 3.2 3.2 0.00 0.00 0.00 52 1014.5
20260503150623 13 239 0.0 0.0 0.00 0.00 0.00 82 1015.9
20260503130556 7 249 0.0 0.0 0.00 0.00 0.00 99 1016.0
20260503110539 8 259 0.0 0.0 0.00 0.00 0.00 99 1016.0
20260503080508 10 260 0.0 0.0 0.00 0.00 0.00 95 1015.9
20260503072002 11 258 0.0 0.0 0.00 0.00 0.00 95 1015.8
20260503070458 11 251 0.0 0.0 0.00 0.00 0.00 95 1015.8
20260503054951 12 255 0.0 0.0 0.00 0.00 0.00 90 1015.3
20260503053448 12 257 0.0 0.0 0.00 0.00 0.00 90 1015.1
20260503051944 13 252 0.0 0.0 0.00 0.00 0.00 89 1015.4
20260503050444 13 291 0.0 0.0 0.00 0.00 0.00 87 1015.2
20260503044942 13 255 0.0 0.0 0.00 0.00 0.00 89 1015.4
20260503043438 13 255 0.0 0.0 0.00 0.00 0.00 87 1015.1
20260503041934 13 245 0.0 0.0 0.00 0.00 0.00 89 1015.3
20260503040431 14 288 0.0 1.6 0.00 0.00 0.00 88 1015.1
20260503034929 15 262 0.0 0.0 0.00 0.00 0.00 86 1014.9
20260503033426 15 257 0.0 0.0 0.00 0.00 0.00 85 1014.6
20260503031926 16 256 0.0 0.0 0.00 0.00 0.00 82 1014.1
20260503030422 16 257 0.0 0.0 0.00 0.00 0.00 76 1014.0
20260503024919 17 258 0.0 0.0 0.00 0.00 0.00 74 1013.6
20260503023416 18 260 1.6 1.6 0.00 0.00 0.00 73 1013.6
20260503021915 19 269 0.0 1.6 0.00 0.00 0.00 65 1013.4
20260503020413 20 262 3.2 3.2 0.00 0.00 0.00 63 1013.2
20260503014913 21 248 3.2 4.8 0.00 0.00 0.00 60 1013.3
20260503013412 22 290 3.2 3.2 0.00 0.00 0.00 57 1013.1
20260503011909 23 136 3.2 3.2 0.00 0.00 0.00 56 1013.1
20260503010405 25 243 1.6 3.2 0.00 0.00 0.00 54 1013.1
20260503004902 25 234 0.0 1.6 0.00 0.00 0.00 53 1013.0
20260503003359 25 220 1.6 1.6 0.00 0.00 0.00 52 1013.2
20260503001856 25 231 1.6 3.2 0.00 0.00 0.00 50 1013.2
20260503000353 25 266 4.8 8.0 0.00 0.00 0.00 50 1013.0
20260502234850 24 174 3.2 3.2 0.00 0.00 0.00 54 1013.5
20260502233345 25 158 6.4 11.3 0.00 0.00 0.00 54 1013.4
20260502231841 26 177 4.8 4.8 0.00 0.00 0.00 49 1013.6
20260502230341 25 256 0.0 0.0 0.00 0.00 0.00 46 1013.7
20260502224837 26 232 6.4 9.7 0.00 0.00 0.00 45 1014.2
20260502223334 25 41 4.8 8.0 0.00 0.00 0.00 48 1014.2
20260502221831 25 164 6.4 9.7 0.00 0.00 0.00 48 1014.2
20260502220326 25 143 8.0 11.3 0.00 0.00 0.00 49 1014.3
20260502214823 25 76 4.8 8.0 0.00 0.00 0.00 44 1014.1
20260502213320 25 147 4.8 8.0 0.00 0.00 0.00 46 1014.7
20260502211820 25 164 4.8 4.8 0.00 0.00 0.00 49 1014.7
20260502210315 24 255 1.6 1.6 0.00 0.00 0.00 49 1014.8
20260502204811 23 222 1.6 1.6 0.00 0.00 0.00 50 1015.1
20260502203309 23 260 1.6 1.6 0.00 0.00 0.00 54 1015.1
20260502201804 23 175 3.2 3.2 0.00 0.00 0.00 52 1015.2
20260502200304 25 142 3.2 4.8 0.00 0.00 0.00 48 1015.5
20260502194800 24 259 4.8 8.0 0.00 0.00 0.00 48 1015.4
20260502193257 23 125 1.6 1.6 0.00 0.00 0.00 53 1015.8
20260502191758 23 352 4.8 8.0 0.00 0.00 0.00 53 1015.8
20260502190255 22 349 3.2 8.0 0.00 0.00 0.00 56 1016.2
20260502184755 21 199 4.8 4.8 0.00 0.00 0.00 59 1016.5
20260502183250 21 256 1.6 1.6 0.00 0.00 0.00 58 1016.4
20260502181749 20 128 1.6 4.8 0.00 0.00 0.00 59 1016.6